Starlink 32765

operational
NORAD ID: 62747 Int'l Des: 2025-014 Owner: SPXS Country: US Constellation: starlink
LEOCIRCULAR

关于 Starlink 32765

正在加载描述...

实时位置

正在加载3D地球...

即将过境

高度历史

Altitude vs Time

uPlot chart will show altitude changes over time

两行轨道根数

1 62747U 25014N 25304.66369190 .00031289 00000-0 11411-2 0 9995
2 62747 43.0019 163.1372 0000044 16.4268 343.6585 15.27597519 43522
Epoch: Oct 31, 2025 • Age: 6 hours

当前状态

高度 489.1 km
速度 7.62 km/s
星下点 -24.97°S, 7.36°E
发射日期 Jan 21, 2025
运行时间 0.7 years
类型 internet

技术详情

分类 Payload
质量 730.00 kg
干质量 700.00 kg
总质量 730.00 kg
长度 0.30 m
直径 4.10 m
跨度 29.00 m
形状 Box + pan
制造商 SPXS
平台类型 Starlink V2M
阶段状态 In Orbit
所有者/国家 SPXS/US

大型星座

Loading constellations...